| time (UTC) | temp C | wind direction | speed KPH | gust KPH | rain 1hr cm | rain 24hr cm | rain mn cm | humidity % | barometer mb |
| 20260502210109 | 18 | 336 | 43.5 | 56.3 | 0.00 | 0.00 | 0.00 | 30 | 1015.0 |
| 20260502204559 | 18 | 16 | 35.4 | 56.3 | 0.00 | 0.00 | 0.00 | 29 | 1014.8 |
| 20260502203112 | 18 | 12 | 45.1 | 57.9 | 0.00 | 0.00 | 0.00 | 30 | 1014.9 |
| 20260502201601 | 18 | 23 | 33.8 | 59.5 | 0.00 | 0.00 | 0.00 | 31 | 1014.9 |
| 20260502200101 | 18 | 338 | 27.4 | 54.7 | 0.00 | 0.00 | 0.00 | 33 | 1015.0 |
| 20260502194559 | 18 | 338 | 27.4 | 51.5 | 0.00 | 0.00 | 0.00 | 31 | 1015.0 |
| 20260502193100 | 18 | 340 | 30.6 | 40.2 | 0.00 | 0.00 | 0.00 | 32 | 1014.9 |
| 20260502191558 | 18 | 11 | 29.0 | 51.5 | 0.00 | 0.00 | 0.00 | 32 | 1015.0 |
| 20260502190101 | 18 | 22 | 38.6 | 57.9 | 0.00 | 0.00 | 0.00 | 30 | 1015.0 |
| 20260502184600 | 18 | 22 | 40.2 | 54.7 | 0.00 | 0.00 | 0.00 | 31 | 1014.9 |
| 20260502183101 | 18 | 29 | 38.6 | 53.1 | 0.00 | 0.00 | 0.00 | 33 | 1015.0 |
| 20260502181600 | 17 | 12 | 37.0 | 53.1 | 0.00 | 0.00 | 0.00 | 34 | 1014.9 |
| 20260502163104 | 17 | 28 | 33.8 | 49.9 | 0.00 | 0.00 | 0.00 | 36 | 1014.7 |
| 20260502161559 | 16 | 28 | 37.0 | 46.7 | 0.00 | 0.00 | 0.00 | 37 | 1014.6 |
| 20260502160104 | 16 | 333 | 35.4 | 41.8 | 0.00 | 0.00 | 0.00 | 38 | 1014.6 |
| 20260502151612 | 15 | 45 | 30.6 | 43.5 | 0.00 | 0.00 | 0.00 | 40 | 1014.5 |
| 20260502150110 | 15 | 42 | 30.6 | 40.2 | 0.00 | 0.00 | 0.00 | 39 | 1014.3 |
| 20260502123102 | 10 | 283 | 24.1 | 30.6 | 0.00 | 0.00 | 0.00 | 46 | 1013.6 |
| 20260502121603 | 7 | 288 | 12.9 | 22.5 | 0.00 | 0.00 | 0.00 | 55 | 1013.8 |
| 20260502120114 | 6 | 325 | 16.1 | 20.9 | 0.00 | 0.00 | 0.00 | 58 | 1013.7 |
| 20260502114603 | 6 | 321 | 16.1 | 22.5 | 0.00 | 0.00 | 0.00 | 57 | 1013.6 |
| 20260502113100 | 7 | 327 | 19.3 | 22.5 | 0.00 | 0.00 | 0.00 | 53 | 1013.8 |
| 20260502111603 | 8 | 5 | 11.3 | 22.5 | 0.00 | 0.00 | 0.00 | 48 | 1013.9 |
| 20260502110100 | 7 | 349 | 16.1 | 25.7 | 0.00 | 0.00 | 0.00 | 51 | 1013.9 |
| 20260502104600 | 8 | 213 | 20.9 | 25.7 | 0.00 | 0.00 | 0.00 | 49 | 1013.3 |
| 20260502103114 | 7 | 212 | 16.1 | 22.5 | 0.00 | 0.00 | 0.00 | 50 | 1013.5 |
| 20260502101559 | 7 | 222 | 16.1 | 19.3 | 0.00 | 0.00 | 0.00 | 52 | 1013.5 |
| 20260502100124 | 7 | 221 | 16.1 | 22.5 | 0.00 | 0.00 | 0.00 | 52 | 1013.6 |
| 20260502090112 | 7 | 220 | 20.9 | 25.7 | 0.00 | 0.00 | 0.00 | 52 | 1013.8 |
| 20260502064608 | 7 | 235 | 12.9 | 19.3 | 0.00 | 0.00 | 0.00 | 45 | 1015.0 |
| 20260502063101 | 7 | 217 | 17.7 | 27.4 | 0.00 | 0.00 | 0.00 | 44 | 1015.2 |
| 20260502061605 | 7 | 217 | 20.9 | 24.1 | 0.00 | 0.00 | 0.00 | 44 | 1015.2 |
| 20260502054600 | 7 | 242 | 8.0 | 12.9 | 0.00 | 0.00 | 0.00 | 45 | 1015.4 |
| 20260502053058 | 7 | 232 | 14.5 | 19.3 | 0.00 | 0.00 | 0.00 | 45 | 1015.6 |
| 20260502051702 | 7 | 230 | 9.7 | 19.3 | 0.00 | 0.00 | 0.00 | 44 | 1015.7 |
| 20260502044609 | 8 | 202 | 9.7 | 24.1 | 0.00 | 0.00 | 0.00 | 41 | 1016.0 |
| 20260502043109 | 8 | 218 | 12.9 | 20.9 | 0.00 | 0.00 | 0.00 | 39 | 1016.0 |
| 20260502041558 | 8 | 221 | 11.3 | 16.1 | 0.00 | 0.00 | 0.00 | 40 | 1016.2 |
| 20260502040101 | 8 | 220 | 9.7 | 16.1 | 0.00 | 0.00 | 0.00 | 40 | 1016.3 |
| 20260502034600 | 8 | 202 | 8.0 | 14.5 | 0.00 | 0.00 | 0.00 | 39 | 1016.4 |
| 20260502033101 | 8 | 204 | 6.4 | 11.3 | 0.00 | 0.00 | 0.00 | 38 | 1016.4 |
| 20260502031653 | 10 | 211 | 12.9 | 17.7 | 0.00 | 0.00 | 0.00 | 36 | 1016.4 |
| 20260502030101 | 10 | 213 | 9.7 | 14.5 | 0.00 | 0.00 | 0.00 | 36 | 1016.4 |
| 20260502024559 | 10 | 228 | 11.3 | 14.5 | 0.00 | 0.00 | 0.00 | 34 | 1016.5 |
| 20260502023101 | 11 | 229 | 11.3 | 12.9 | 0.00 | 0.00 | 0.00 | 33 | 1016.5 |
| 20260502021600 | 12 | 213 | 9.7 | 12.9 | 0.00 | 0.00 | 0.00 | 31 | 1016.4 |
| 20260502020113 | 13 | 213 | 9.7 | 11.3 | 0.00 | 0.00 | 0.00 | 29 | 1016.4 |
| 20260502014559 | 15 | 196 | 8.0 | 12.9 | 0.00 | 0.00 | 0.00 | 26 | 1016.4 |
| 20260502013112 | 16 | 196 | 9.7 | 16.1 | 0.00 | 0.00 | 0.00 | 23 | 1016.4 |
| 20260502011559 | 17 | 192 | 12.9 | 24.1 | 0.00 | 0.00 | 0.00 | 21 | 1016.6 |
| 20260502010058 | 17 | 196 | 17.7 | 27.4 | 0.00 | 0.00 | 0.00 | 20 | 1016.7 |
| 20260502004602 | 17 | 207 | 17.7 | 25.7 | 0.00 | 0.00 | 0.00 | 20 | 1016.6 |
| 20260502003101 | 17 | 182 | 11.3 | 30.6 | 0.00 | 0.00 | 0.00 | 19 | 1016.9 |
| 20260502001601 | 17 | 229 | 19.3 | 29.0 | 0.00 | 0.00 | 0.00 | 19 | 1017.0 |
| 20260501234601 | 17 | 251 | 12.9 | 27.4 | 0.00 | 0.00 | 0.00 | 19 | 1016.9 |
| 20260501233112 | 17 | 240 | 17.7 | 29.0 | 0.00 | 0.00 | 0.00 | 18 | 1017.1 |
| 20260501231614 | 17 | 226 | 9.7 | 32.2 | 0.00 | 0.00 | 0.00 | 18 | 1017.2 |
| 20260501230120 | 17 | 228 | 6.4 | 17.7 | 0.00 | 0.00 | 0.00 | 17 | 1017.4 |
| 20260501224603 | 17 | 226 | 16.1 | 32.2 | 0.00 | 0.00 | 0.00 | 18 | 1017.4 |
| 20260501223108 | 18 | 250 | 16.1 | 24.1 | 0.00 | 0.00 | 0.00 | 18 | 1017.5 |
| 20260501221601 | 17 | 291 | 4.8 | 30.6 | 0.00 | 0.00 | 0.00 | 18 | 1017.6 |
| 20260501220100 | 17 | 0 | 11.3 | 33.8 | 0.00 | 0.00 | 0.00 | 19 | 1017.6 |
| 20260501214612 | 17 | 255 | 17.7 | 27.4 | 0.00 | 0.00 | 0.00 | 20 | 1017.9 |
| 20260501213105 | 17 | 198 | 11.3 | 29.0 | 0.00 | 0.00 | 0.00 | 19 | 1018.1 |
| 20260501211601 | 17 | 156 | 19.3 | 30.6 | 0.00 | 0.00 | 0.00 | 20 | 1018.3 |